Regional Weather Roundup
Issued by NWS

Home | Current Version | Previous Version | Text Only | Print | Product List | Glossary On
Versions: 1 2 3 4 5 6 7 8 9 10 11 12 13 14 15 16 17 18 19 20 21 22 23 24 25 26 27 28 29 30 31 32 33 34 35 36 37 38 39 40 41 42 43 44 45 46 47 48 49 50
000
ASUS42 KKEY 031810
RWRKEY

FLORIDA REGIONAL WEATHER ROUNDUP FOR THE FLORIDA KEYS
NATIONAL WEATHER SERVICE KEY WEST FLORIDA
200 PM EDT SUN MAY 03 2015

...SOUTH FLORIDA AND THE KEYS...

CITY           SKY/WX    TMP DP  RH WIND       PRES   REMARKS
FORT MYERS     MOSUNNY   85  53  33 E12G20    30.10F
SW REGIONAL AP MOSUNNY   81  52  36 NE17G23   30.11F
NAPLES         PTSUNNY   84  55  36 E15G23    30.09F
MIAMI          PTSUNNY   80  53  39 E16       30.11F
WEST KENDALL   MOSUNNY   81  55  40 E18G26    30.11S
HOMESTEAD      MOSUNNY   79  59  49 NE14      30.10S
MARATHON       MOSUNNY   83  62  49 E17G25    30.07F
BOCA CHICA NAS PTSUNNY   83  64  52 E23       30.06F
KEY WEST INTL  MOSUNNY   81  64  56 E20G26    30.07F

...INTERNATIONAL WEATHER...

CITY           SKY/WX    TMP DP  RH WIND       PRES   REMARKS
NASSAU BAHAMAS MOSUNNY   81  66  61 NE12      30.11F
CANCUN MEXICO  PTSUNNY   84  68  58 NE10      30.00F
COZUMEL MEXICO PTSUNNY   81  68  65 NE17      29.99F

ADJACENT COASTAL WATERS...

STATION/POSITION TIME  SKY/WX   TEMP    WIND        PRES    WAVE
                                AIR SEA DIR/SP/G            HT/PER
                 (UTC)          (F)     (DEG/KT/KT) (MB)    (FT/S)
PULASKI SHOAL LI 1700            77      90/ 20/ 24 1018.1F
SAND KEY         1750            77      90/ 21/ 25 1017.7F
SOMBRERO KEY     1800            77      90/ 23/ 25 1018.1F
LONG KEY         1700            76 76   80/ 18/ 20 1019.6F
MOLASSES REEF    1800            76 80   70/ 19/ 21 1018.4F
FOWEY ROCKS      NOT AVBL

$$



USA.gov is the U.S. government's official web portal to all federal, state and local government web resources and services.